User: anonymous   Login
Location: Fremont
(37.5480°N, 121.9880°W)
Time: 16:54:12
(UTC-07:00)
Language:

Cosmos 1766 - Orbit

View from above orbital plane
View from above orbital plane
View from above satellite
View from above satellite

Ground track
Ground track

The orbit data is extracted from the following two-line orbital elements,

1 16881U 86055A   16272.07353955  .00000733  00000-0  43569-4 0  9997
2 16881  82.5052 280.0268 0014307 289.3123  70.6559 15.09725617641889
Epoch (UTC): 28 September 2016 01:45:53
Eccentricity: 0.0014307
inclination: 82.5052°
perigee height: 527 km
apogee height: 547 km
right ascension of ascending node: 280.0268°
argument of perigee: 289.3123°
revolutions per day: 15.09725617
mean anomaly at epoch: 70.6559°
orbit number at epoch: 64188

The dashed part of the orbit path shows where the satellite is in the earth's shadow,  

DLR